This is the latest recevied weather packets stored in our database for station/object W4SKW. If no packets are shown the sender has not sent any weather packets the latest 10 day(s).
| Time | Temp. | Humidity | Pressure | Rain* | Wind** | Luminosity | Snow |
|---|---|---|---|---|---|---|---|
| 1777734390 | 15° C | 57% | 1016.1 hPa | 0 mm | - | 355 W/m² | - |
| 1777734086 | 15° C | 55% | 1016 hPa | 0 mm | - | 260 W/m² | - |
| 1777733782 | 15° C | 62% | 1015.9 hPa | 0 mm | - | 267 W/m² | - |
| 1777733479 | 15° C | 56% | 1016 hPa | 0 mm | - | 271 W/m² | - |
| 1777733175 | 14.44° C | 59% | 1015.8 hPa | 0 mm | - | 212 W/m² | - |
| 1777732872 | 14.44° C | 58% | 1016 hPa | 0 mm | - | 195 W/m² | - |
| 1777732569 | 13.89° C | 64% | 1015.9 hPa | 0 mm | - | 200 W/m² | - |
| 1777732267 | 13.89° C | 59% | 1015.8 hPa | 0 mm | - | 253 W/m² | - |
| 1777731963 | 13.89° C | 62% | 1016 hPa | 0 mm | - | 191 W/m² | - |
| 1777731660 | 14.44° C | 60% | 1015.7 hPa | 0 mm | - | 174 W/m² | - |
| 1777731357 | 13.89° C | 61% | 1015.8 hPa | 0 mm | - | 193 W/m² | - |
| 1777730944 | 13.89° C | 60% | 1015.7 hPa | 0 mm | - | 159 W/m² | - |
| 1777730642 | 13.89° C | 60% | 1015.7 hPa | 0 mm | - | 159 W/m² | - |
| 1777730338 | 13.89° C | 59% | 1015.5 hPa | 0 mm | - | 173 W/m² | - |
| 1777730034 | 13.89° C | 59% | 1015.5 hPa | 0 mm | - | 165 W/m² | - |
| 1777729730 | 13.89° C | 60% | 1015.6 hPa | 0 mm | - | 177 W/m² | - |
| 1777729428 | 13.89° C | 60% | 1015.4 hPa | 0 mm | - | 156 W/m² | - |
| 1777729124 | 13.89° C | 59% | 1015.3 hPa | 0 mm | - | 156 W/m² | - |
| 1777728821 | 13.89° C | 59% | 1015.3 hPa | 0 mm | - | 156 W/m² | - |
| 1777728518 | 13.33° C | 65% | 1015.1 hPa | 0 mm | - | 120 W/m² | - |
| 1777728215 | 12.78° C | 65% | 1015.1 hPa | 0 mm | - | 111 W/m² | - |
| 1777727912 | 12.78° C | 63% | 1015.4 hPa | 0 mm | - | 117 W/m² | - |
| 1777727609 | 12.78° C | 66% | 1015.3 hPa | 0 mm | - | 103 W/m² | - |
| 1777727306 | 12.22° C | 66% | 1015 hPa | 0 mm | - | 89 W/m² | - |
| 1777727004 | 12.22° C | 65% | 1015.1 hPa | 0 mm | - | 88 W/m² | - |
* Rain latest hour (hover to see other rain measurements)
** Current wind speed in m/s (hover to see current wind gust speed)